Location: Sternwarte ZA, Rosenfeld-Brittheim
(48.2889°N, 8.6789°E)
Time: 21:30:36
(UTC+01:00)

ISS - Pass Details

Date: 25 February 2021
Orbit: 417 x 422 km, 51.6° (Epoch: 02 March)

Event Time Altitude Azimuth Distance (km) Brightness Sun altitude
Exits shadow 06:23:08 13° 260° (W) 1,343 -1.8 -9.2°
Maximum altitude 06:26:06 67° 343° (NNW) 458 -3.7 -8.7°
Drops below altitude 10° 06:29:27 10° 67° (ENE) 1,501 0.2 -8.2°
Sets 06:31:34 0° 70° (ENE) 2,367 1.4 -7.8°
